WMT8LX LICC-LIMC

Flight info

Callsign WMT8LX
Flight time 1h 40m
Altitude 38000
Route BUDIN DCT NERAR DCT ENSOT DCT UNIXO DCT MEDAL DCT GILIO DCT UPDIN DCT SPEZI DCT IDONA DCT MEBUR
Aircraft A20N/M-SDE1E2E3FGIJ1J4RWXY/LB1

Departure

Time 2026-05-01 13:09
Airport Catania-Fontanarossa Airport (LICC)

Arrival

Time 2026-05-01 14:49
Airport Milan Malpensa International Airport (LIMC)
Time Latitude Longitude Altitude Speed Heading
2026-05-01 12:39 37.46888 15.06191 34 ft 0 kts 354°
2026-05-01 13:00 37.46883 15.06191 34 ft 2 kts 354°
2026-05-01 13:00 37.46867 15.06194 34 ft 2 kts 354°
2026-05-01 13:01 37.46843 15.06197 34 ft 2 kts 354°
2026-05-01 13:01 37.46829 15.06203 34 ft 2 kts 326°
2026-05-01 13:01 37.46811 15.06233 33 ft 2 kts 282°
2026-05-01 13:02 37.46810 15.06245 33 ft 1 kts 267°
2026-05-01 13:07 37.46671 15.05467 51 ft 1 kts 189°
2026-05-01 13:07 37.46656 15.05466 51 ft 4 kts 173°
2026-05-01 13:07 37.46604 15.05485 50 ft 11 kts 164°
2026-05-01 13:08 37.46585 15.05518 49 ft 0 kts 44°
2026-05-01 13:08 37.46584 15.05540 49 ft 7 kts 94°
2026-05-01 13:08 37.46615 15.05917 39 ft 81 kts 83°
2026-05-01 13:08 37.46699 15.06922 27 ft 145 kts 82°
2026-05-01 13:09 37.46824 15.08331 379 ft 167 kts 84°
2026-05-01 13:09 37.46981 15.09735 1110 ft 167 kts 80°
2026-05-01 13:09 37.47195 15.11163 1819 ft 171 kts 78°
2026-05-01 13:09 37.47417 15.12720 2298 ft 190 kts 81°
2026-05-01 13:10 37.47636 15.14442 2738 ft 212 kts 81°
2026-05-01 13:10 37.47879 15.16360 3267 ft 232 kts 81°
2026-05-01 13:10 37.48154 15.18466 3872 ft 250 kts 79°
2026-05-01 13:10 37.48450 15.20653 4676 ft 258 kts 78°
2026-05-01 13:11 37.48754 15.22863 5584 ft 262 kts 78°
2026-05-01 13:11 37.49068 15.25127 6502 ft 265 kts 78°
2026-05-01 13:11 37.49380 15.27414 7379 ft 268 kts 77°
2026-05-01 13:11 37.49722 15.29720 8218 ft 272 kts 72°
2026-05-01 13:12 37.50397 15.31926 9028 ft 273 kts 58°
2026-05-01 13:12 37.51475 15.33854 9783 ft 275 kts 44°
2026-05-01 13:12 37.52860 15.35528 10539 ft 279 kts 39°
2026-05-01 13:12 37.54396 15.37114 11011 ft 293 kts 32°
2026-05-01 13:13 37.56162 15.38434 11450 ft 305 kts 23°
2026-05-01 13:13 37.58126 15.39494 12179 ft 309 kts 19°
2026-05-01 13:13 37.60113 15.40482 12957 ft 311 kts 18°
2026-05-01 13:13 37.62125 15.41476 13742 ft 313 kts 18°
2026-05-01 13:14 37.64154 15.42488 14523 ft 315 kts 18°
2026-05-01 13:14 37.66175 15.43499 15256 ft 317 kts 18°
2026-05-01 13:14 37.68234 15.44534 15994 ft 319 kts 18°
2026-05-01 13:14 37.70307 15.45430 16697 ft 318 kts
2026-05-01 13:15 37.72487 15.45567 17382 ft 316 kts 352°
2026-05-01 13:15 37.74606 15.44887 18077 ft 317 kts 340°
2026-05-01 13:15 37.76657 15.43891 18765 ft 318 kts 339°
2026-05-01 13:15 37.78712 15.42866 19416 ft 319 kts 339°
2026-05-01 13:16 37.80762 15.41840 20047 ft 321 kts 339°
2026-05-01 13:16 37.82826 15.40810 20668 ft 322 kts 340°
2026-05-01 13:16 37.84904 15.39776 21281 ft 324 kts 340°
2026-05-01 13:17 37.91204 15.36611 23071 ft 328 kts 340°
2026-05-01 13:17 37.93332 15.35538 23475 ft 334 kts 340°
2026-05-01 13:18 37.97723 15.33337 24427 ft 341 kts 340°
2026-05-01 13:18 37.99899 15.32246 24956 ft 342 kts 340°
2026-05-01 13:18 38.02128 15.31127 25469 ft 344 kts 340°
2026-05-01 13:18 38.04349 15.30012 25962 ft 345 kts 340°
2026-05-01 13:19 38.06593 15.28885 26439 ft 347 kts 340°
2026-05-01 13:19 38.08821 15.27763 26857 ft 349 kts 340°
2026-05-01 13:19 38.13375 15.25474 27563 ft 357 kts 341°
2026-05-01 13:20 38.15693 15.24311 28002 ft 358 kts 340°
2026-05-01 13:20 38.17987 15.23153 28415 ft 360 kts 341°
2026-05-01 13:20 38.20326 15.21972 28814 ft 361 kts 341°
2026-05-01 13:21 38.25000 15.19604 29548 ft 363 kts 341°
2026-05-01 13:21 38.27339 15.18417 29891 ft 364 kts 341°
2026-05-01 13:21 38.29690 15.17220 30306 ft 363 kts 341°
2026-05-01 13:21 38.31993 15.16046 30758 ft 361 kts 341°
2026-05-01 13:22 38.34317 15.14860 31201 ft 358 kts 341°
2026-05-01 13:22 38.36612 15.13690 31605 ft 356 kts 341°
2026-05-01 13:22 38.38913 15.12518 31990 ft 354 kts 341°
2026-05-01 13:22 38.41186 15.11361 32378 ft 352 kts 341°
2026-05-01 13:23 38.43420 15.10131 32756 ft 351 kts 339°
2026-05-01 13:23 38.45603 15.08776 33095 ft 351 kts 337°
2026-05-01 13:23 38.47753 15.07281 33407 ft 352 kts 335°
2026-05-01 13:23 38.49832 15.05671 33705 ft 353 kts 333°
2026-05-01 13:24 38.51865 15.03925 33971 ft 355 kts 330°
2026-05-01 13:24 38.53855 15.02062 34217 ft 356 kts 329°
2026-05-01 13:24 38.55837 15.00159 34462 ft 356 kts 329°
2026-05-01 13:25 38.59788 14.96343 34882 ft 358 kts 328°
2026-05-01 13:25 38.61774 14.94417 35087 ft 359 kts 328°
2026-05-01 13:25 38.63751 14.92496 35278 ft 360 kts 328°
2026-05-01 13:25 38.65770 14.90535 35469 ft 361 kts 328°
2026-05-01 13:26 38.67757 14.88601 35664 ft 362 kts 328°
2026-05-01 13:26 38.69774 14.86634 35839 ft 363 kts 328°
2026-05-01 13:26 38.71762 14.84694 36025 ft 363 kts 328°
2026-05-01 13:26 38.73763 14.82736 36237 ft 363 kts 328°
2026-05-01 13:27 38.75764 14.80778 36435 ft 363 kts 328°
2026-05-01 13:27 38.77769 14.78817 36611 ft 363 kts 328°
2026-05-01 13:27 38.81718 14.74953 36986 ft 362 kts 328°
2026-05-01 13:28 38.85728 14.71020 37302 ft 363 kts 328°
2026-05-01 13:28 38.87709 14.69073 37466 ft 363 kts 328°
2026-05-01 13:29 38.91707 14.65143 37769 ft 362 kts 327°
2026-05-01 13:29 38.95707 14.61208 38047 ft 362 kts 327°
2026-05-01 13:30 39.03681 14.53343 38174 ft 361 kts 327°
2026-05-01 13:31 39.07645 14.49421 38174 ft 362 kts 327°
2026-05-01 13:32 39.17592 14.39592 38189 ft 361 kts 327°
2026-05-01 13:33 39.27518 14.29671 38196 ft 361 kts 327°
2026-05-01 13:34 39.35437 14.21704 38197 ft 362 kts 326°
2026-05-01 13:35 39.41357 14.15680 38200 ft 362 kts 326°
2026-05-01 13:36 39.47269 14.09642 38201 ft 362 kts 326°
2026-05-01 13:36 39.53179 14.03590 38206 ft 363 kts 326°
2026-05-01 13:37 39.57147 13.99522 38211 ft 367 kts 326°
2026-05-01 13:37 39.61188 13.95373 38214 ft 373 kts 326°
2026-05-01 13:38 39.67332 13.89051 38208 ft 381 kts 326°
2026-05-01 13:39 39.71483 13.84766 38206 ft 384 kts 326°
2026-05-01 13:39 39.75668 13.80443 38202 ft 385 kts 326°
2026-05-01 13:40 39.79862 13.76102 38200 ft 385 kts 326°
2026-05-01 13:40 39.84056 13.71752 38204 ft 386 kts 326°
2026-05-01 13:41 39.88237 13.67410 38203 ft 385 kts 326°
2026-05-01 13:41 39.92416 13.63063 38203 ft 385 kts 326°
2026-05-01 13:42 39.96579 13.58725 38204 ft 385 kts 326°
2026-05-01 13:42 40.00761 13.54357 38202 ft 386 kts 326°
2026-05-01 13:43 40.04929 13.50001 38201 ft 385 kts 326°
2026-05-01 13:43 40.09124 13.45609 38205 ft 385 kts 326°
2026-05-01 13:44 40.13272 13.41271 38213 ft 385 kts 326°
2026-05-01 13:44 40.17458 13.36896 38221 ft 386 kts 326°
2026-05-01 13:45 40.21636 13.32498 38225 ft 386 kts 325°
2026-05-01 13:45 40.25777 13.28106 38227 ft 386 kts 326°
2026-05-01 13:46 40.29940 13.23702 38228 ft 386 kts 326°
2026-05-01 13:46 40.34116 13.19284 38228 ft 386 kts 326°
2026-05-01 13:47 40.38291 13.14860 38227 ft 387 kts 325°
2026-05-01 13:47 40.42476 13.10414 38227 ft 390 kts 324°
2026-05-01 13:48 40.46720 13.05892 38228 ft 393 kts 324°
2026-05-01 13:48 40.50950 13.01384 38229 ft 395 kts 324°
2026-05-01 13:49 40.55103 12.96636 38224 ft 399 kts 320°
2026-05-01 13:49 40.59144 12.91574 38221 ft 401 kts 319°
2026-05-01 13:50 40.63142 12.86521 38214 ft 401 kts 319°
2026-05-01 13:50 40.67171 12.81415 38208 ft 401 kts 319°
2026-05-01 13:51 40.71178 12.76328 38205 ft 401 kts 319°
2026-05-01 13:51 40.75168 12.71262 38203 ft 401 kts 320°
2026-05-01 13:52 40.79382 12.66480 38203 ft 399 kts 325°
2026-05-01 13:52 40.83810 12.62047 38203 ft 399 kts 325°
2026-05-01 13:53 40.88245 12.57620 38203 ft 399 kts 325°
2026-05-01 13:53 40.94878 12.50979 38204 ft 399 kts 325°
2026-05-01 13:54 40.99272 12.46570 38203 ft 399 kts 325°
2026-05-01 13:54 41.03686 12.42135 38203 ft 399 kts 325°
2026-05-01 13:55 41.08086 12.37703 38204 ft 398 kts 324°
2026-05-01 13:55 41.12480 12.33275 38205 ft 398 kts 324°
2026-05-01 13:56 41.16885 12.28818 38204 ft 398 kts 324°
2026-05-01 13:56 41.21258 12.24389 38204 ft 398 kts 324°
2026-05-01 13:57 41.24924 12.20676 38203 ft 398 kts 324°
2026-05-01 13:57 41.30050 12.15472 38203 ft 398 kts 324°
2026-05-01 13:58 41.34431 12.11014 38203 ft 398 kts 324°
2026-05-01 13:58 41.38622 12.06741 38203 ft 398 kts 324°
2026-05-01 13:59 41.42996 12.02275 38203 ft 397 kts 324°
2026-05-01 13:59 41.47377 11.97792 38204 ft 398 kts 324°
2026-05-01 14:00 41.51759 11.93300 38203 ft 398 kts 324°
2026-05-01 14:00 41.56146 11.88790 38204 ft 398 kts 324°
2026-05-01 14:01 41.60505 11.84300 38204 ft 398 kts 324°
2026-05-01 14:01 41.64875 11.79794 38204 ft 397 kts 324°
2026-05-01 14:02 41.69252 11.75273 38203 ft 398 kts 324°
2026-05-01 14:02 41.73632 11.70743 38204 ft 398 kts 324°
2026-05-01 14:03 41.78011 11.66205 38203 ft 398 kts 324°
2026-05-01 14:03 41.82358 11.61690 38203 ft 398 kts 324°
2026-05-01 14:04 41.86728 11.57141 38204 ft 398 kts 324°
2026-05-01 14:04 41.90348 11.53364 38203 ft 398 kts 324°
2026-05-01 14:05 41.95436 11.48043 38206 ft 398 kts 324°
2026-05-01 14:05 41.99803 11.43468 38219 ft 398 kts 324°
2026-05-01 14:06 42.04101 11.38846 38238 ft 398 kts 321°
2026-05-01 14:06 42.08134 11.33685 38261 ft 402 kts 316°
2026-05-01 14:07 42.11971 11.28232 38283 ft 405 kts 316°
2026-05-01 14:08 42.17777 11.19957 38303 ft 406 kts 316°
2026-05-01 14:08 42.21638 11.14413 38308 ft 405 kts 316°
2026-05-01 14:09 42.25471 11.08894 38310 ft 406 kts 315°
2026-05-01 14:09 42.29322 11.03334 38310 ft 406 kts 315°
2026-05-01 14:10 42.33172 10.97788 38309 ft 407 kts 316°
2026-05-01 14:10 42.37284 10.92515 38309 ft 409 kts 320°
2026-05-01 14:11 42.41756 10.87754 38309 ft 411 kts 323°
2026-05-01 14:11 42.48669 10.80876 38309 ft 416 kts 323°
2026-05-01 14:12 42.53339 10.76226 38310 ft 418 kts 323°
2026-05-01 14:12 42.58013 10.71560 38310 ft 418 kts 323°
2026-05-01 14:13 42.61896 10.67679 38310 ft 418 kts 323°
2026-05-01 14:13 42.67331 10.62236 38310 ft 418 kts 323°
2026-05-01 14:14 42.72026 10.57525 38310 ft 418 kts 323°
2026-05-01 14:14 42.76661 10.52866 38310 ft 418 kts 323°
2026-05-01 14:15 42.81334 10.48158 38310 ft 418 kts 323°
2026-05-01 14:15 42.86000 10.43457 38309 ft 418 kts 325°
2026-05-01 14:16 42.91110 10.39693 38312 ft 419 kts 333°
2026-05-01 14:16 42.96348 10.36294 38311 ft 419 kts 333°
2026-05-01 14:17 43.01590 10.32839 38312 ft 418 kts 332°
2026-05-01 14:17 43.06797 10.29361 38311 ft 417 kts 332°
2026-05-01 14:18 43.11994 10.25889 38311 ft 417 kts 332°
2026-05-01 14:18 43.16344 10.22995 38311 ft 417 kts 332°
2026-05-01 14:19 43.22419 10.18936 38310 ft 417 kts 332°
2026-05-01 14:19 43.27595 10.15466 38310 ft 417 kts 332°
2026-05-01 14:20 43.35422 10.10199 38311 ft 417 kts 332°
2026-05-01 14:21 43.40615 10.06697 38310 ft 417 kts 332°
2026-05-01 14:21 43.45829 10.03172 38310 ft 417 kts 332°
2026-05-01 14:22 43.53616 9.97896 38310 ft 417 kts 332°
2026-05-01 14:22 43.58789 9.94383 38311 ft 417 kts 332°
2026-05-01 14:23 43.63981 9.90852 38310 ft 417 kts 332°
2026-05-01 14:23 43.69197 9.87298 38310 ft 417 kts 332°
2026-05-01 14:24 43.74363 9.83770 38311 ft 417 kts 332°
2026-05-01 14:24 43.79581 9.80198 38310 ft 418 kts 332°
2026-05-01 14:25 43.84750 9.76654 38310 ft 417 kts 332°
2026-05-01 14:25 43.89948 9.73081 38310 ft 418 kts 332°
2026-05-01 14:26 43.97725 9.67724 38310 ft 417 kts 332°
2026-05-01 14:27 44.02925 9.64133 38310 ft 417 kts 332°
2026-05-01 14:27 44.08100 9.60553 38309 ft 417 kts 332°
2026-05-01 14:28 44.13201 9.57031 37690 ft 401 kts 332°
2026-05-01 14:28 44.15676 9.55325 36532 ft 402 kts 332°
2026-05-01 14:28 44.18160 9.53606 35278 ft 402 kts 332°
2026-05-01 14:28 44.20628 9.51895 34049 ft 402 kts 332°
2026-05-01 14:29 44.23136 9.50154 32684 ft 403 kts 332°
2026-05-01 14:29 44.25611 9.48429 31197 ft 407 kts 332°
2026-05-01 14:30 44.33207 9.43114 26871 ft 404 kts 332°
2026-05-01 14:30 44.35690 9.41377 25771 ft 396 kts 332°
2026-05-01 14:30 44.38100 9.39687 24606 ft 390 kts 332°
2026-05-01 14:31 44.42866 9.36339 22256 ft 380 kts 332°
2026-05-01 14:31 44.45188 9.34705 21101 ft 375 kts 332°
2026-05-01 14:31 44.47475 9.33085 19971 ft 369 kts 332°
2026-05-01 14:31 44.49695 9.31509 19335 ft 354 kts 332°
2026-05-01 14:32 44.51881 9.29958 18893 ft 345 kts 332°
2026-05-01 14:32 44.53986 9.28466 18438 ft 338 kts 332°
2026-05-01 14:32 44.56067 9.26991 17978 ft 332 kts 332°
2026-05-01 14:32 44.58102 9.25548 17522 ft 328 kts 332°
2026-05-01 14:33 44.60120 9.24118 17070 ft 324 kts 332°
2026-05-01 14:33 44.62135 9.22689 16617 ft 325 kts 332°
2026-05-01 14:33 44.64176 9.21242 16166 ft 325 kts 332°
2026-05-01 14:33 44.66177 9.19823 15732 ft 325 kts 332°
2026-05-01 14:34 44.68203 9.18386 15301 ft 324 kts 332°
2026-05-01 14:34 44.70192 9.16974 14884 ft 323 kts 332°
2026-05-01 14:34 44.72200 9.15549 14469 ft 322 kts 332°
2026-05-01 14:34 44.74182 9.14140 14062 ft 321 kts 332°
2026-05-01 14:35 44.76187 9.12714 13653 ft 319 kts 332°
2026-05-01 14:35 44.78150 9.11317 13255 ft 318 kts 332°
2026-05-01 14:35 44.80123 9.09911 12852 ft 316 kts 332°
2026-05-01 14:35 44.82068 9.08524 12452 ft 315 kts 332°
2026-05-01 14:36 44.84019 9.07132 12049 ft 314 kts 332°
2026-05-01 14:36 44.85961 9.05744 11650 ft 313 kts 332°
2026-05-01 14:36 44.87896 9.04361 11260 ft 311 kts 332°
2026-05-01 14:36 44.89815 9.02988 10875 ft 310 kts 332°
2026-05-01 14:37 44.91729 9.01616 10498 ft 308 kts 333°
2026-05-01 14:37 44.93592 9.00280 10405 ft 294 kts 333°
2026-05-01 14:37 44.95374 8.99001 10353 ft 279 kts 333°
2026-05-01 14:37 44.97069 8.97782 10241 ft 271 kts 332°
2026-05-01 14:38 44.98764 8.96562 9882 ft 271 kts 332°
2026-05-01 14:38 45.00430 8.95361 9550 ft 270 kts 332°
2026-05-01 14:38 45.02116 8.94146 9223 ft 269 kts 333°
2026-05-01 14:38 45.03763 8.92958 8910 ft 267 kts 333°
2026-05-01 14:39 45.05420 8.91764 8601 ft 266 kts 333°
2026-05-01 14:39 45.07054 8.90587 8296 ft 264 kts 333°
2026-05-01 14:39 45.08661 8.89429 8201 ft 252 kts 333°
2026-05-01 14:39 45.10219 8.88306 8175 ft 254 kts 333°
2026-05-01 14:40 45.11819 8.87190 8127 ft 256 kts 337°
2026-05-01 14:40 45.13501 8.86432 8014 ft 254 kts 347°
2026-05-01 14:40 45.15213 8.85939 7768 ft 250 kts 349°
2026-05-01 14:40 45.16901 8.85501 7528 ft 245 kts 349°
2026-05-01 14:41 45.18579 8.85064 7270 ft 241 kts 349°
2026-05-01 14:41 45.20206 8.84631 7025 ft 237 kts 349°
2026-05-01 14:41 45.21818 8.84197 6782 ft 234 kts 349°
2026-05-01 14:41 45.23402 8.83766 6535 ft 230 kts 349°
2026-05-01 14:42 45.24969 8.83339 6253 ft 229 kts 349°
2026-05-01 14:42 45.26518 8.82916 5966 ft 228 kts 349°
2026-05-01 14:42 45.28061 8.82495 5680 ft 227 kts 349°
2026-05-01 14:42 45.29599 8.82075 5464 ft 226 kts 349°
2026-05-01 14:43 45.31152 8.81710 5221 ft 225 kts 353°
2026-05-01 14:43 45.32710 8.81477 4981 ft 225 kts 354°
2026-05-01 14:43 45.34254 8.81209 4742 ft 224 kts 352°
2026-05-01 14:43 45.35791 8.80882 4504 ft 223 kts 351°
2026-05-01 14:44 45.37328 8.80507 4279 ft 223 kts 350°
2026-05-01 14:44 45.40375 8.79677 3772 ft 222 kts 349°
2026-05-01 14:44 45.41891 8.79247 3450 ft 222 kts 349°
2026-05-01 14:45 45.43400 8.78815 3194 ft 220 kts 349°
2026-05-01 14:45 45.46275 8.78000 3010 ft 199 kts 349°
2026-05-01 14:45 45.47631 8.77619 3197 ft 200 kts 349°
2026-05-01 14:46 45.48999 8.77236 3152 ft 199 kts 349°
2026-05-01 14:46 45.51698 8.76485 2664 ft 191 kts 349°
2026-05-01 14:46 45.52949 8.76137 2413 ft 179 kts 349°
2026-05-01 14:47 45.54119 8.75813 2222 ft 163 kts 349°
2026-05-01 14:47 45.55190 8.75516 1983 ft 150 kts 349°
2026-05-01 14:47 45.56173 8.75244 1775 ft 142 kts 349°
2026-05-01 14:48 45.58111 8.74708 1415 ft 141 kts 349°
2026-05-01 14:48 45.59081 8.74439 1224 ft 141 kts 349°
2026-05-01 14:48 45.61005 8.73916 850 ft 140 kts 349°
2026-05-01 14:49 45.62791 8.73415 720 ft 95 kts 348°
2026-05-01 14:49 45.63215 8.73138 731 ft 18 kts 307°
2026-05-01 14:50 45.63309 8.72952 734 ft 16 kts 300°
2026-05-01 14:50 45.63411 8.72633 741 ft 11 kts 266°
2026-05-01 14:51 45.63391 8.72503 741 ft 18 kts 257°
2026-05-01 14:51 45.63343 8.72160 747 ft 17 kts 258°
2026-05-01 14:52 45.63292 8.71834 749 ft 17 kts 273°
2026-05-01 14:52 45.63273 8.71669 749 ft 15 kts 222°
2026-05-01 14:52 45.63077 8.71713 745 ft 12 kts 168°
2026-05-01 14:53 45.62988 8.71740 743 ft 6 kts 169°
2026-05-01 14:53 45.62930 8.71755 743 ft 12 kts 172°
2026-05-01 14:53 45.62822 8.71793 743 ft 18 kts 167°
2026-05-01 14:53 45.62690 8.71834 741 ft 20 kts 168°
2026-05-01 14:54 45.62625 8.71850 740 ft 8 kts 178°
2026-05-01 14:54 45.62551 8.71863 740 ft 12 kts 170°
2026-05-01 14:54 45.62453 8.71890 739 ft 15 kts 172°
2026-05-01 14:54 45.62338 8.71909 737 ft 16 kts 166°
2026-05-01 14:55 45.62247 8.71971 735 ft 7 kts 115°
2026-05-01 14:55 45.62251 8.72045 734 ft 6 kts 79°
2026-05-01 14:55 45.62252 8.72049 734 ft 0 kts 80°